Weather History for Hamilton Island, QU

Change the Weather History Date:

Wednesday, April 30, 2014

  Actual Average Record
Temperature  
Mean Temperature 74 °F -  
Max Temperature 78 °F - - ()
Min Temperature 70 °F - - ()
Cooling Degree Days 9    
Growing Degree Days 24 (Base 50)    
Moisture  
Dew Point 71 °F    
Average Humidity 86    
Maximum Humidity 94    
Minimum Humidity 75    
Precipitation  
Precipitation 0.00 in - - ()
Sea Level Pressure  
Sea Level Pressure 29.94 in    
Wind  
Wind Speed 17 mph ()    
Max Wind Speed 25 mph    
Max Gust Speed 20 mph    
Visibility 6.2 miles    
Events      
T = Trace of Precipitation, MM = Missing Value Source: Averaged Metar Reports

Daily Weather History Graph

Daily Weather History Graph

Search for Another Location

Airport:

Trip Planner

Search our weather history database for the weather conditions in past years. The results will help you decide how hot, cold, wet, or windy it might be!

Date:

Astronomy

Apr. 30, 2014 Rise Set
Actual Time 6:20 AM AEST 5:42 PM AEST
Civil Twilight 5:57 AM AEST 6:05 PM AEST
Nautical Twilight 5:31 AM AEST 6:31 PM AEST
Astronomical Twilight 5:05 AM AEST 6:57 PM AEST
Moon 6:57 AM AEST (4/30) 6:31 PM AEST (4/30)
Length of Visible Light 12h 08m
Length of Day
11h 22m
New Moon, 1% of the Moon is Illuminated
Apr 30
New Moon
May 7
First Quarter
May 15
Full
May 21
Last Quarter
May 29
New

Hourly Weather History & Observations

Time (AEST) Temp. Dew Point Humidity Pressure Visibility Wind Dir Wind Speed Gust Speed Precip Events Conditions
12:00 AM 74 °F 70 °F 84% 29.95 in - SE 21.9 mph - -  
12:00 AM 75.2 °F 69.8 °F 83% 29.95 in 6.2 mi SE 21.9 mph - N/A   Scattered Clouds
12:30 AM 75.2 °F 71.6 °F 89% 29.95 in 6.2 mi SE 20.7 mph - N/A   Scattered Clouds
12:52 AM 75.2 °F 71.6 °F 89% 29.95 in 6.2 mi SE 21.9 mph - N/A   Mostly Cloudy
1:00 AM 75.2 °F 69.8 °F 83% 29.95 in 6.2 mi SE 23.0 mph - N/A   Mostly Cloudy
2:00 AM 75.2 °F 71.6 °F 89% 29.92 in 6.2 mi SE 21.9 mph - N/A   Mostly Cloudy
2:07 AM 75.2 °F 71.6 °F 89% 29.92 in 6.2 mi SE 24.2 mph - N/A   Mostly Cloudy
2:30 AM 73.4 °F 69.8 °F 88% 29.92 in 6.2 mi SE 25.3 mph - N/A   Mostly Cloudy
3:00 AM 74 °F 70 °F 83% 29.93 in - SE 21.9 mph - -  
3:00 AM 73.4 °F 69.8 °F 88% 29.92 in 6.2 mi SE 21.9 mph - N/A   Scattered Clouds
3:30 AM 73.4 °F 69.8 °F 88% 29.92 in 6.2 mi SSE 20.7 mph - N/A   Mostly Cloudy
3:50 AM 73.4 °F 71.6 °F 94% 29.92 in 6.2 mi SSE 17.3 mph - N/A   Overcast
4:00 AM 73.4 °F 71.6 °F 94% 29.92 in 6.2 mi SSE 17.3 mph - N/A   Overcast
4:30 AM 73.4 °F 69.8 °F 88% 29.92 in 6.2 mi SSE 19.6 mph - N/A   Overcast
5:00 AM 73.4 °F 69.8 °F 88% 29.92 in 6.2 mi SSE 19.6 mph - N/A   Overcast
5:30 AM 73.4 °F 69.8 °F 88% 29.92 in 6.2 mi South 20.7 mph - N/A   Overcast
6:00 AM 72 °F 70 °F 91% 29.94 in - SSE 19.6 mph - -   Overcast
6:00 AM 71.6 °F 69.8 °F 94% 29.95 in 6.2 mi SSE 19.6 mph - N/A   Overcast
6:09 AM 71.6 °F 69.8 °F 94% 29.95 in 6.2 mi SSE 18.4 mph - N/A   Overcast
6:25 AM 71.6 °F 69.8 °F 94% 29.95 in 6.2 mi South 16.1 mph - N/A   Overcast
6:30 AM 71.6 °F 69.8 °F 94% 29.95 in 6.2 mi South 16.1 mph - N/A   Overcast
7:00 AM 73.4 °F 69.8 °F 88% 29.95 in 6.2 mi South 17.3 mph - N/A   Overcast
7:30 AM 73.4 °F 69.8 °F 88% 29.98 in 6.2 mi SSE 18.4 mph - N/A   Overcast
8:00 AM 73.4 °F 71.6 °F 94% 29.98 in 6.2 mi SSE 20.7 mph - N/A   Overcast
8:04 AM 71.6 °F 69.8 °F 94% 29.98 in 3.7 mi ESE 19.6 mph - N/A   Overcast
8:30 AM 71.6 °F 69.8 °F 94% 29.98 in - SSE 2.3 mph 19.6 mph N/A   Overcast
9:00 AM 73 °F 71 °F 92% 29.99 in - SSE 18.4 mph - -   Overcast
9:00 AM 73.4 °F 71.6 °F 94% 29.98 in 6.2 mi SSE 18.4 mph - N/A   Overcast
9:05 AM 73.4 °F 71.6 °F 94% 29.98 in 6.2 mi SSE 17.3 mph - N/A   Overcast
9:30 AM 73.4 °F 71.6 °F 94% 29.98 in 6.2 mi SSE 17.3 mph - N/A   Overcast
9:59 AM 73.4 °F 69.8 °F 88% 29.98 in 6.2 mi SSE 16.1 mph - N/A   Overcast
10:03 AM 75.2 °F 69.8 °F 83% 29.98 in 6.2 mi SSE 17.3 mph - N/A   Overcast
10:13 AM 75.2 °F 69.8 °F 83% 29.98 in 6.2 mi SSE 17.3 mph - N/A   Overcast
10:20 AM 75.2 °F 69.8 °F 83% 29.98 in 6.2 mi SSE 18.4 mph - N/A   Overcast
10:30 AM 75.2 °F 69.8 °F 83% 29.98 in 6.2 mi SSE 19.6 mph - N/A   Overcast
11:02 AM 77.0 °F 71.6 °F 83% 29.98 in 6.2 mi SSE 16.1 mph - N/A   Overcast
11:30 AM 77.0 °F 71.6 °F 83% 29.95 in 6.2 mi SSE 16.1 mph - N/A   Mostly Cloudy
12:00 PM 76 °F 71 °F 80% 29.94 in - SSE 16.1 mph - -   Overcast
12:00 PM 77.0 °F 71.6 °F 83% 29.92 in 6.2 mi SSE 16.1 mph - N/A   Overcast
12:05 PM 77.0 °F 69.8 °F 78% 29.92 in 6.2 mi SSE 16.1 mph - N/A   Overcast
12:27 PM 77.0 °F 71.6 °F 83% 29.92 in 6.2 mi SSE 16.1 mph - N/A   Overcast
12:30 PM 77.0 °F 71.6 °F 83% 29.92 in 6.2 mi SSE 16.1 mph - N/A   Overcast
1:00 PM 77.0 °F 71.6 °F 83% 29.92 in 6.2 mi SSE 18.4 mph - N/A   Mostly Cloudy
1:30 PM 77.0 °F 71.6 °F 83% 29.89 in 6.2 mi SE 20.7 mph - N/A   Overcast
1:57 PM 77.0 °F 71.6 °F 83% 29.89 in 6.2 mi SSE 18.4 mph - N/A   Mostly Cloudy
2:00 PM 78.8 °F 71.6 °F 78% 29.89 in 6.2 mi SE 18.4 mph - N/A   Mostly Cloudy
2:23 PM 78.8 °F 71.6 °F 78% 29.89 in 6.2 mi SE 16.1 mph - N/A   Mostly Cloudy
2:30 PM 78.8 °F 71.6 °F 78% 29.89 in 6.2 mi SE 17.3 mph - N/A   Mostly Cloudy
3:00 PM 78 °F 72 °F 75% 29.89 in - SE 16.1 mph - -   Overcast
3:00 PM 78.8 °F 71.6 °F 78% 29.89 in 6.2 mi SE 16.1 mph - N/A   Overcast
3:26 PM 78.8 °F 71.6 °F 78% 29.89 in 6.2 mi SE 15.0 mph - N/A   Overcast
4:00 PM 77.0 °F 71.6 °F 83% 29.89 in 6.2 mi SE 13.8 mph - N/A   Overcast
4:30 PM 77.0 °F 71.6 °F 83% 29.89 in 6.2 mi SE 17.3 mph - N/A   Mostly Cloudy
5:00 PM 77.0 °F 69.8 °F 78% 29.89 in 6.2 mi ESE 16.1 mph - N/A   Unknown
5:30 PM 75.2 °F 69.8 °F 83% 29.92 in 6.2 mi ESE 13.8 mph - N/A   Scattered Clouds
6:00 PM 75 °F 71 °F 83% 29.92 in - SE 15.0 mph - -  
6:00 PM 75.2 °F 71.6 °F 89% 29.92 in 6.2 mi SE 15.0 mph - N/A   Scattered Clouds
6:30 PM 75.2 °F 69.8 °F 83% 29.92 in 6.2 mi ESE 16.1 mph - N/A   Unknown
7:00 PM 75.2 °F 71.6 °F 89% 29.95 in 6.2 mi ESE 16.1 mph - N/A   Mostly Cloudy
7:30 PM 77.0 °F 69.8 °F 78% 29.95 in 6.2 mi ESE 17.3 mph - N/A   Overcast
8:00 PM 77.0 °F 69.8 °F 78% 29.95 in 6.2 mi ESE 13.8 mph - N/A   Overcast
8:30 PM 77.0 °F 71.6 °F 83% 29.98 in 6.2 mi SE 12.7 mph - N/A   Overcast
9:00 PM 76 °F 70 °F 78% 29.97 in - SE 12.7 mph - -   Overcast
9:00 PM 75.2 °F 69.8 °F 83% 29.98 in 6.2 mi SE 12.7 mph - N/A   Overcast
9:30 PM 75.2 °F 69.8 °F 83% 29.98 in 6.2 mi ESE 13.8 mph - N/A   Mostly Cloudy
9:52 PM 75.2 °F 69.8 °F 83% 29.98 in 6.2 mi SE 12.7 mph - N/A   Mostly Cloudy
10:00 PM 75.2 °F 69.8 °F 83% 29.98 in 6.2 mi SE 12.7 mph - N/A   Mostly Cloudy
10:30 PM 75.2 °F 71.6 °F 89% 29.95 in 6.2 mi SE 11.5 mph - N/A   Mostly Cloudy
11:00 PM 75.2 °F 69.8 °F 83% 29.95 in 6.2 mi ESE 10.4 mph - N/A   Unknown
11:30 PM 75.2 °F 69.8 °F 83% 29.95 in 6.2 mi SE 11.5 mph - N/A   Scattered Clouds